sat.trackr.live / text

‹ back to catalog

STARLINK-11072 [DTC]

NORAD 58705 · 2024-002A

PAYLOAD ACTIVE UNKNOWN

§ Identity

Operator
Country
US
Launch date
2024-01-03
Launch site
AFWTR
Launch vehicle
Mass (kg)
RCS (m²)

Purposes: comms

External: N2YO · Heavens-Above · Gunter

§ Orbital elements

Epoch: 2026-09-19T17:31:06.660480Z

Period
91.74 min
Inclination
53.1595°
Eccentricity
0.0001210
Mean motion
15.69690382 rev/d
Perigee alt
359.0 km
Apogee alt
360.6 km
Semi-major
6,737.9 km
B*
-3.0427e-5
RAAN
37.4663°
Arg perigee
72.1057°
Mean anomaly
288.0092°
Rev number
15,691

§ Raw data

STARLINK-11072 [DTC]1 58705U 24002A   26262.72993820 -.00004270  00000+0 -30427-4 0  99952 58705  53.1595  37.4663 0001210  72.1057 288.0092 15.69690382156910

JSON: /api/v1/satellites/58705 · /tle

For live sub-satellite position, see the globe view (requires WebGL).

§ Visibility from observer

Set your observer location to see the next 7 days of passes ≥ 10°. The values pass through the URL so the page stays shareable.

No JS? Fill the form by hand. The geolocation button needs JavaScript.